Weather History for CYYG - May, 2013

Change the Weather History Date:

Sunday, May 26, 2013

  Actual Average Record
Temperature  
Mean Temperature 56 °F -  
Max Temperature 63 °F 66 °F 77 °F (2007)
Min Temperature 48 °F 48 °F 30 °F (2004)
Degree Days  
Heating Degree Days 10    
Growing Degree Days 6 (Base 50)    
Moisture  
Dew Point 50 °F    
Average Humidity 80    
Maximum Humidity 100    
Minimum Humidity 46    
Precipitation  
Precipitation 0.01 in 0.12 in - ()
Sea Level Pressure  
Sea Level Pressure 29.85 in    
Wind  
Wind Speed 15 mph ()    
Max Wind Speed 25 mph    
Max Gust Speed 38 mph    
Visibility 13.7 miles    
Events Rain    
Averages and records for this station are not official NWS values.
T = Trace of Precipitation, MM = Missing Value Source: Averaged Metar Reports

Daily Weather History Graph

Daily Weather History Graph

Search for Another Location

Airport or City:

Trip Planner

Search our weather history database for the weather conditions in past years. The results will help you decide how hot, cold, wet, or windy it might be!

Date:

Astronomy

May. 26, 2013 Rise Set
Actual Time 5:28 AM ADT 8:51 PM ADT
Civil Twilight 4:51 AM ADT 9:28 PM ADT
Nautical Twilight 4:02 AM ADT 10:17 PM ADT
Astronomical Twilight 3:00 AM ADT 11:20 PM ADT
Moon 10:33 PM ADT (5/26) 6:53 AM ADT (5/26)
Length of Visible Light 16h 37m
Length of Day
15h 23m
Full, 97% of the Moon is Illuminated
May 26
Full
May 31
Last Quarter
Jun 8
New
Jun 16
First Quarter
Jun 23
Full

Hourly Weather History & Observations

Time (ADT) Temp. Dew Point Humidity Pressure Visibility Wind Dir Wind Speed Gust Speed Precip Events Conditions
12:00 AM 60.8 °F 59.0 °F 94% 29.88 in 10.0 mi SSE 17.3 mph 25.3 mph N/A   Overcast
1:00 AM 59.0 °F 59.0 °F 100% 29.86 in 10.0 mi SE 13.8 mph 21.9 mph N/A Rain Light Rain Showers
2:00 AM 59.0 °F 59.0 °F 100% 29.86 in 8.0 mi SE 12.7 mph - N/A Rain Light Rain Showers
3:00 AM 57 °F 57 °F 100% 29.86 in 7 mi SSE 12.7 mph - - Rain Light Rain Showers
3:00 AM 57.2 °F 57.2 °F 100% 29.85 in 8.0 mi SE 11.5 mph 17.3 mph N/A Rain Light Rain Showers
3:50 AM 55.4 °F 55.4 °F 100% 29.86 in 8.0 mi SSE 16.1 mph - N/A   Overcast
4:00 AM 55.4 °F 55.4 °F 100% 29.86 in 8.0 mi South 18.4 mph - N/A   Overcast
5:00 AM 53.6 °F 53.6 °F 100% 29.86 in 15.0 mi South 11.5 mph 17.3 mph N/A   Mostly Cloudy
6:00 AM 51.8 °F 51.8 °F 100% 29.87 in 15.0 mi SSE 11.5 mph - N/A   Mostly Cloudy
7:00 AM 53.6 °F 53.6 °F 100% 29.88 in 15.0 mi SE 9.2 mph - N/A   Mostly Cloudy
7:24 AM 55.4 °F 55.4 °F 100% 29.89 in 15.0 mi SSE 13.8 mph - N/A   Mostly Cloudy
7:40 AM 55.4 °F 53.6 °F 94% 29.89 in 15.0 mi South 15.0 mph - N/A   Mostly Cloudy
8:00 AM 53.6 °F 53.6 °F 100% 29.89 in 15.0 mi SSE 15.0 mph 21.9 mph N/A   Mostly Cloudy
9:00 AM 56 °F 54 °F 90% 29.89 in 15 mi SSE 19.6 mph - -   Partly Cloudy
9:00 AM 55.4 °F 53.6 °F 94% 29.89 in 15.0 mi SSE 19.6 mph 25.3 mph N/A   Mostly Cloudy
10:00 AM 57.2 °F 53.6 °F 88% 29.89 in 15.0 mi SSE 17.3 mph - N/A   Mostly Cloudy
11:00 AM 60.8 °F 53.6 °F 77% 29.86 in 15.0 mi SSE 20.7 mph - N/A   Scattered Clouds
12:00 PM 60.8 °F 53.6 °F 77% 29.85 in 15.0 mi SSE 17.3 mph 26.5 mph N/A   Scattered Clouds
1:00 PM 62.6 °F 48.2 °F 59% 29.84 in 15.0 mi South 21.9 mph 27.6 mph N/A   Scattered Clouds
2:00 PM 60.8 °F 48.2 °F 63% 29.83 in 15.0 mi South 21.9 mph 33.4 mph N/A   Mostly Cloudy
2:28 PM 59.0 °F 46.4 °F 63% 29.83 in 15.0 mi South 23.0 mph 38.0 mph N/A Rain Light Rain Showers
2:54 PM 60.8 °F 46.4 °F 59% 29.83 in 15.0 mi South 25.3 mph 32.2 mph N/A   Scattered Clouds
3:00 PM 61 °F 46 °F 46% 29.83 in 15 mi South 25.3 mph - - Rain Light Rain Showers
3:00 PM 60.8 °F 46.4 °F 59% 29.83 in 15.0 mi South 24.2 mph 33.4 mph N/A   Scattered Clouds
4:00 PM 59.0 °F 44.6 °F 59% 29.83 in 15.0 mi South 23.0 mph 29.9 mph N/A   Scattered Clouds
5:00 PM 57.2 °F 42.8 °F 59% 29.82 in 15.0 mi South 21.9 mph 32.2 mph N/A   Mostly Cloudy
5:03 PM 57.2 °F 42.8 °F 59% 29.82 in 15.0 mi South 21.9 mph 31.1 mph N/A Rain Light Rain Showers
6:00 PM 55.4 °F 44.6 °F 67% 29.82 in 15.0 mi South 20.7 mph 32.2 mph N/A   Mostly Cloudy
7:00 PM 55.4 °F 42.8 °F 63% 29.82 in 15.0 mi South 19.6 mph 26.5 mph N/A   Mostly Cloudy
7:28 PM 53.6 °F 42.8 °F 67% 29.82 in 15.0 mi South 18.4 mph 25.3 mph N/A Rain Light Rain Showers
8:00 PM 51.8 °F 42.8 °F 71% 29.81 in 15.0 mi South 19.6 mph 26.5 mph N/A   Mostly Cloudy
9:00 PM 50 °F 43 °F 68% 29.82 in 15 mi South 18.4 mph - -   Partly Cloudy
9:00 PM 50.0 °F 42.8 °F 76% 29.81 in 15.0 mi South 19.6 mph 26.5 mph N/A   Mostly Cloudy
10:00 PM 48.2 °F 42.8 °F 82% 29.82 in 15.0 mi South 16.1 mph 26.5 mph N/A   Mostly Cloudy
10:20 PM 48.2 °F 41.0 °F 76% 29.82 in 15.0 mi South 19.6 mph 26.5 mph N/A Rain Light Rain Showers
11:00 PM 48.2 °F 42.8 °F 82% 29.82 in 15.0 mi South 12.7 mph 19.6 mph N/A   Mostly Cloudy